Hourly Weather Altar

Today, 11 May, Tuesday

Time Temperature Precipitation Wind Pressure Humidity
00:00 +14°C° 0 mm 0 mps 744 mmHg 81%
01:00 +14°C° 0 mm 0 mps 743 mmHg 81%
02:00 +13°C° 0 mm 0 mps 744 mmHg 81%
03:00 +13°C° 0 mm 0 mps 744 mmHg 81%
04:00 +13°C° 0 mm 0 mps 744 mmHg 81%
05:00 +15°C° 0 mm 0 mps 744 mmHg 76%
06:00 +16°C° 0 mm 0 mps 744 mmHg 70%
07:00 +20°C° 0 mm 1 mps 745 mmHg 64%
08:00 +22°C° 0 mm 1 mps 745 mmHg 56%
09:00 +24°C° 0 mm 2 mps 745 mmHg 49%
10:00 +26°C° 0 mm 3 mps 745 mmHg 41%
11:00 +27°C° 0 mm 3 mps 744 mmHg 40%
12:00 +28°C° 0 mm 4 mps 744 mmHg 38%
13:00 +28°C° 0 mm 4 mps 744 mmHg 37%
14:00 +27°C° 0 mm 4 mps 744 mmHg 41%
15:00 +26°C° 0 mm 4 mps 744 mmHg 45%
16:00 +25°C° 0 mm 3 mps 744 mmHg 49%
17:00 +24°C° 0 mm 3 mps 744 mmHg 55%
18:00 +21°C° 0 mm 2 mps 744 mmHg 62%
19:00 +19°C° 0 mm 2 mps 745 mmHg 69%
20:00 +20°C° 0 mm 1 mps 745 mmHg 72%
21:00 +19°C° 0 mm 1 mps 745 mmHg 75%
22:00 +18°C° 0 mm 1 mps 745 mmHg 78%
23:00 +18°C° 0 mm 1 mps 745 mmHg 78%

Tomorrow, 12 May, Wednesday

Time Temperature Precipitation Wind Pressure Humidity
00:00 +18°C° 0 mm 1 mps 745 mmHg 79%
01:00 +16°C° 0 mm 0 mps 745 mmHg 79%
02:00 +16°C° 0 mm 0 mps 745 mmHg 79%
03:00 +15°C° 0 mm 0 mps 745 mmHg 80%
04:00 +15°C° 0 mm 0 mps 745 mmHg 80%
05:00 +17°C° 0 mm 0 mps 746 mmHg 73%
06:00 +21°C° 0 mm 1 mps 746 mmHg 66%
07:00 +23°C° 0 mm 1 mps 746 mmHg 58%
08:00 +25°C° 0 mm 1 mps 746 mmHg 50%
09:00 +27°C° 0 mm 2 mps 746 mmHg 43%
10:00 +29°C° 0 mm 3 mps 746 mmHg 35%
11:00 +30°C° 0 mm 3 mps 746 mmHg 35%
12:00 +30°C° 0 mm 4 mps 746 mmHg 35%
13:00 +32°C° 0 mm 4 mps 746 mmHg 35%
14:00 +29°C° 0 mm 4 mps 746 mmHg 40%
15:00 +28°C° 0 mm 4 mps 746 mmHg 44%
16:00 +27°C° 0 mm 3 mps 746 mmHg 49%
17:00 +25°C° 0 mm 3 mps 746 mmHg 56%
18:00 +23°C° 0 mm 2 mps 747 mmHg 63%
19:00 +20°C° 0 mm 2 mps 747 mmHg 71%
20:00 +21°C° 0 mm 1 mps 747 mmHg 73%
21:00 +20°C° 0 mm 1 mps 747 mmHg 76%
22:00 +20°C° 0 mm 1 mps 747 mmHg 79%
23:00 +19°C° 0 mm 1 mps 747 mmHg 79%

Day after tomorrow, 13 May, Thursday

Time Temperature Precipitation Wind Pressure Humidity
00:00 +19°C° 0 mm 1 mps 747 mmHg 80%
01:00 +19°C° 0 mm 1 mps 747 mmHg 80%
02:00 +19°C° 0 mm 1 mps 747 mmHg 80%
03:00 +18°C° 0 mm 1 mps 746 mmHg 80%
04:00 +18°C° 0 mm 1 mps 746 mmHg 80%
05:00 +20°C° 0 mm 1 mps 746 mmHg 73%
06:00 +22°C° 0 mm 1 mps 747 mmHg 66%
07:00 +23°C° 0 mm 1 mps 747 mmHg 58%
08:00 +25°C° 0 mm 1 mps 747 mmHg 52%
09:00 +27°C° 0 mm 2 mps 747 mmHg 45%
10:00 +29°C° 0 mm 3 mps 747 mmHg 39%
11:00 +29°C° 0 mm 3 mps 747 mmHg 39%
12:00 +29°C° 0 mm 4 mps 747 mmHg 39%
13:00 +29°C° 0 mm 5 mps 746 mmHg 39%
14:00 +29°C° 0 mm 4 mps 746 mmHg 40%
15:00 +28°C° 0 mm 4 mps 746 mmHg 40%
16:00 +28°C° 0 mm 3 mps 746 mmHg 41%
17:00 +26°C° 0 mm 3 mps 746 mmHg 48%
18:00 +24°C° 0 mm 2 mps 746 mmHg 56%
19:00 +20°C° 0 mm 2 mps 746 mmHg 64%
20:00 +21°C° 0 mm 1 mps 746 mmHg 68%
21:00 +20°C° 0 mm 1 mps 746 mmHg 72%
22:00 +19°C° 0 mm 1 mps 746 mmHg 75%
23:00 +19°C° 0 mm 1 mps 746 mmHg 76%

14 May, Friday

Time Temperature Precipitation Wind Pressure Humidity
00:00 +18°C° 0 mm 1 mps 745 mmHg 77%
01:00 +18°C° 0 mm 1 mps 745 mmHg 78%
02:00 +18°C° 0 mm 1 mps 745 mmHg 79%
03:00 +15°C° 0 mm 0 mps 745 mmHg 79%
04:00 +15°C° 0 mm 0 mps 745 mmHg 80%
05:00 +19°C° 0 mm 1 mps 745 mmHg 73%
06:00 +20°C° 0 mm 1 mps 745 mmHg 66%
07:00 +22°C° 0 mm 1 mps 745 mmHg 59%
08:00 +24°C° 0 mm 1 mps 745 mmHg 52%
09:00 +26°C° 0 mm 2 mps 745 mmHg 45%
10:00 +27°C° 0 mm 3 mps 745 mmHg 38%
11:00 +28°C° 0 mm 4 mps 745 mmHg 37%
12:00 +28°C° 0 mm 4 mps 745 mmHg 36%
13:00 +29°C° 0 mm 5 mps 745 mmHg 34%
14:00 +28°C° 0 mm 4 mps 744 mmHg 37%
15:00 +27°C° 0 mm 4 mps 744 mmHg 39%
16:00 +26°C° 0 mm 4 mps 744 mmHg 42%
17:00 +24°C° 0 mm 3 mps 744 mmHg 50%
18:00 +21°C° 0 mm 2 mps 744 mmHg 58%
19:00 +19°C° 0 mm 2 mps 744 mmHg 67%
20:00 +19°C° 0 mm 1 mps 745 mmHg 72%
21:00 +18°C° 0 mm 1 mps 745 mmHg 76%
22:00 +16°C° 0 mm 1 mps 745 mmHg 81%
23:00 +16°C° 0 mm 1 mps 745 mmHg 82%

15 May, Saturday

Time Temperature Precipitation Wind Pressure Humidity
00:00 +16°C° 0 mm 1 mps 744 mmHg 83%
01:00 +14°C° 0 mm 0 mps 744 mmHg 84%
02:00 +15°C° 0 mm 1 mps 744 mmHg 84%
03:00 +15°C° 0 mm 1 mps 744 mmHg 84%
04:00 +14°C° 0 mm 1 mps 745 mmHg 84%
05:00 +16°C° 0 mm 1 mps 745 mmHg 76%
06:00 +16°C° 0 mm 0 mps 745 mmHg 68%
07:00 +18°C° 0 mm 0 mps 745 mmHg 59%
08:00 +21°C° 0 mm 1 mps 745 mmHg 53%
09:00 +23°C° 0 mm 2 mps 745 mmHg 48%
10:00 +23°C° 0 mm 4 mps 745 mmHg 42%
11:00 +25°C° 0 mm 4 mps 745 mmHg 41%
12:00 +25°C° 0 mm 4 mps 745 mmHg 41%
13:00 +25°C° 0 mm 4 mps 745 mmHg 40%
14:00 +23°C° 0 mm 4 mps 744 mmHg 43%
15:00 +23°C° 0 mm 4 mps 744 mmHg 45%
16:00 +22°C° 0 mm 4 mps 744 mmHg 47%
17:00 +20°C° 0 mm 3 mps 744 mmHg 56%
18:00 +18°C° 0 mm 3 mps 744 mmHg 64%
19:00 +17°C° 0 mm 2 mps 745 mmHg 72%
20:00 +16°C° 0 mm 2 mps 745 mmHg 75%
21:00 +15°C° 0 mm 1 mps 745 mmHg 78%
22:00 +14°C° 0 mm 1 mps 745 mmHg 82%
23:00 +14°C° 0 mm 1 mps 745 mmHg 81%

16 May, Sunday

Time Temperature Precipitation Wind Pressure Humidity
00:00 +14°C° 0 mm 1 mps 745 mmHg 80%
01:00 +14°C° 0 mm 1 mps 745 mmHg 80%
02:00 +14°C° 0 mm 1 mps 745 mmHg 79%
03:00 +14°C° 0 mm 1 mps 745 mmHg 78%
04:00 +14°C° 0 mm 1 mps 745 mmHg 78%
05:00 +14°C° 0 mm 0 mps 745 mmHg 74%
06:00 +14°C° 0 mm 0 mps 745 mmHg 70%
07:00 +15°C° 0 mm 0 mps 745 mmHg 66%
08:00 +19°C° 0 mm 1 mps 745 mmHg 59%
09:00 +19°C° 0 mm 2 mps 745 mmHg 52%
10:00 +21°C° 0 mm 3 mps 745 mmHg 46%
11:00 +22°C° 0 mm 4 mps 745 mmHg 45%
12:00 +22°C° 0 mm 4 mps 745 mmHg 44%
13:00 +23°C° 0 mm 5 mps 745 mmHg 43%
14:00 +23°C° 0 mm 4 mps 745 mmHg 45%
15:00 +22°C° 0 mm 4 mps 745 mmHg 47%
16:00 +22°C° 0 mm 4 mps 745 mmHg 49%
17:00 +20°C° 0 mm 3 mps 745 mmHg 55%
18:00 +19°C° 0 mm 3 mps 745 mmHg 61%
19:00 +17°C° 0 mm 2 mps 745 mmHg 68%
20:00 +17°C° 0 mm 2 mps 746 mmHg 71%
21:00 +16°C° 0 mm 1 mps 746 mmHg 75%
22:00 +15°C° 0 mm 1 mps 746 mmHg 79%
23:00 +15°C° 0 mm 1 mps 746 mmHg 81%
Show more

We Need Your Consent

Meteoprog and our Service Providers may store and access personal data such as cookies, device identifiers or other similar technologies on your device and process such data to personalise content and ads, as well as provide social media features and to analyse the traffic.

  • Store and/or access information on your device

    Cookies, device identifiers or other information can be stored or accessed on your device for the purposes indicated above.

  • Personalised ads and content, ad and content measurement, audience insights, and products development

    Ads and content can be personalised based on a profile. More data can be added to better personalise ads and content. Ad and content performance can be measured. Insights about the audience who saw the ads and content can be derived. Such data can be used to develop or improve user’s experience, systems and software.

By clicking ‘I Agree’ you will allow the use of indicated cookies, device identifiers, web beacons or other similar technologies. Your settings can be changed in the browser on your device.

For certain purposes, legitimate interests may be relied on, rather than consent. You can read more about this in our Privacy and Cookie Policy.